owner,sensor,date,latitude,longitude,vertical_datum,sea_water_temperature,qcFlag 
ENP,ioos.station.NOAA.NDBC:GBIF1:1,2015-01-01T00:00:00Z,25.3780,-81.0290,1.0,24.44,2 
ENP,ioos.station.NOAA.NDBC:GBIF1:1,2015-01-01T01:00:00Z,25.3780,-81.0290,1.0,24.43,2 
ENP,ioos.station.NOAA.NDBC:GBIF1:1,2015-01-01T02:00:00Z,25.3780,-81.0290,1.0,24.38,2 
ENP,ioos.station.NOAA.NDBC:GBIF1:1,2015-01-01T03:00:00Z,25.3780,-81.0290,1.0,24.4,2 
ENP,ioos.station.NOAA.NDBC:GBIF1:1,2015-01-01T04:00:00Z,25.3780,-81.0290,1.0,24.45,2 
ENP,ioos.station.NOAA.NDBC:GBIF1:1,2015-01-05T09:00:00Z,25.3780,-81.0290,1.0,24.88,2 
ENP,ioos.station.NOAA.NDBC:GBIF1:1,2015-01-05T10:00:00Z,25.3780,-81.0290,1.0,24.71,2 
ENP,ioos.station.NOAA.NDBC:GBIF1:1,2015-01-05T11:00:00Z,25.3780,-81.0290,1.0,24.54,2 
ENP,ioos.station.NOAA.NDBC:GBIF1:1,2015-01-05T12:00:00Z,25.3780,-81.0290,1.0,24.36,2 
ENP,ioos.station.NOAA.NDBC:GBIF1:1,2015-01-05T13:00:00Z,25.3780,-81.0290,1.0,24.16,2 
ENP,ioos.station.NOAA.NDBC:GBIF1:1,2015-01-05T15:00:00Z,25.3780,-81.0290,1.0,24.29,2 
ENP,ioos.station.NOAA.NDBC:GBIF1:1,2015-01-05T16:00:00Z,25.3780,-81.0290,1.0,24.41,2 
ENP,ioos.station.NOAA.NDBC:GBIF1:1,2015-01-05T17:00:00Z,25.3780,-81.0290,1.0,24.56,2 
ENP,ioos.station.NOAA.NDBC:GBIF1:1,2015-01-05T18:00:00Z,25.3780,-81.0290,1.0,24.69,2 
ENP,ioos.station.NOAA.NDBC:GBIF1:1,2015-01-05T19:00:00Z,25.3780,-81.0290,1.0,25.14,2 
ENP,ioos.station.NOAA.NDBC:GBIF1:1,2015-01-05T20:00:00Z,25.3780,-81.0290,1.0,25.27,2 
ENP,ioos.station.NOAA.NDBC:GBIF1:1,2015-01-05T21:00:00Z,25.3780,-81.0290,1.0,25.33,2 
ENP,ioos.station.NOAA.NDBC:GBIF1:1,2015-01-05T22:00:00Z,25.3780,-81.0290,1.0,25.35,2 
ENP,ioos.station.NOAA.NDBC:GBIF1:1,2015-01-05T23:00:00Z,25.3780,-81.0290,1.0,25.28,2 
ENP,ioos.station.NOAA.NDBC:GBIF1:1,2015-01-06T00:00:00Z,25.3780,-81.0290,1.0,25.15,2 
ENP,ioos.station.NOAA.NDBC:GBIF1:1,2015-01-06T01:00:00Z,25.3780,-81.0290,1.0,24.94,2 
ENP,ioos.station.NOAA.NDBC:GBIF1:1,2015-01-06T02:00:00Z,25.3780,-81.0290,1.0,24.62,2 
ENP,ioos.station.NOAA.NDBC:GBIF1:1,2015-01-06T03:00:00Z,25.3780,-81.0290,1.0,24.71,2 
ENP,ioos.station.NOAA.NDBC:GBIF1:1,2015-01-06T04:00:00Z,25.3780,-81.0290,1.0,24.86,2 
ENP,ioos.station.NOAA.NDBC:GBIF1:1,2015-01-06T05:00:00Z,25.3780,-81.0290,1.0,24.87,2 
ENP,ioos.station.NOAA.NDBC:GBIF1:1,2015-01-06T06:00:00Z,25.3780,-81.0290,1.0,24.88,2 
ENP,ioos.station.NOAA.NDBC:GBIF1:1,2015-01-06T07:00:00Z,25.3780,-81.0290,1.0,24.91,2 
ENP,ioos.station.NOAA.NDBC:GBIF1:1,2015-01-06T08:00:00Z,25.3780,-81.0290,1.0,24.91,2 
ENP,ioos.station.NOAA.NDBC:GBIF1:1,2015-01-06T09:00:00Z,25.3780,-81.0290,1.0,24.92,2 
ENP,ioos.station.NOAA.NDBC:GBIF1:1,2015-01-06T10:00:00Z,25.3780,-81.0290,1.0,24.65,2 
ENP,ioos.station.NOAA.NDBC:GBIF1:1,2015-01-06T11:00:00Z,25.3780,-81.0290,1.0,24.68,2 
ENP,ioos.station.NOAA.NDBC:GBIF1:1,2015-01-06T12:00:00Z,25.3780,-81.0290,1.0,24.44,2 
ENP,ioos.station.NOAA.NDBC:GBIF1:1,2015-01-06T13:00:00Z,25.3780,-81.0290,1.0,24.16,2 
ENP,ioos.station.NOAA.NDBC:GBIF1:1,2015-01-06T14:00:00Z,25.3780,-81.0290,1.0,24.25,2 
ENP,ioos.station.NOAA.NDBC:GBIF1:1,2015-01-06T15:00:00Z,25.3780,-81.0290,1.0,24.31,2 
ENP,ioos.station.NOAA.NDBC:GBIF1:1,2015-01-06T16:00:00Z,25.3780,-81.0290,1.0,24.36,2 
ENP,ioos.station.NOAA.NDBC:GBIF1:1,2015-01-06T17:00:00Z,25.3780,-81.0290,1.0,24.6,2 
ENP,ioos.station.NOAA.NDBC:GBIF1:1,2015-01-06T18:00:00Z,25.3780,-81.0290,1.0,24.8,2 
ENP,ioos.station.NOAA.NDBC:GBIF1:1,2015-01-06T19:00:00Z,25.3780,-81.0290,1.0,24.82,2 
ENP,ioos.station.NOAA.NDBC:GBIF1:1,2015-01-06T20:00:00Z,25.3780,-81.0290,1.0,25.25,2 
ENP,ioos.station.NOAA.NDBC:GBIF1:1,2015-01-06T21:00:00Z,25.3780,-81.0290,1.0,25.4,2 
ENP,ioos.station.NOAA.NDBC:GBIF1:1,2015-01-06T22:00:00Z,25.3780,-81.0290,1.0,25.38,2 
ENP,ioos.station.NOAA.NDBC:GBIF1:1,2015-01-06T23:00:00Z,25.3780,-81.0290,1.0,25.3,2 
ENP,ioos.station.NOAA.NDBC:GBIF1:1,2015-01-07T00:00:00Z,25.3780,-81.0290,1.0,25.14,2 
ENP,ioos.station.NOAA.NDBC:GBIF1:1,2015-01-07T01:00:00Z,25.3780,-81.0290,1.0,24.88,2 
ENP,ioos.station.NOAA.NDBC:GBIF1:1,2015-01-07T02:00:00Z,25.3780,-81.0290,1.0,24.5,2 
ENP,ioos.station.NOAA.NDBC:GBIF1:1,2015-01-07T03:00:00Z,25.3780,-81.0290,1.0,24.28,2 
ENP,ioos.station.NOAA.NDBC:GBIF1:1,2015-01-07T05:00:00Z,25.3780,-81.0290,1.0,24.93,2 
ENP,ioos.station.NOAA.NDBC:GBIF1:1,2015-01-07T06:00:00Z,25.3780,-81.0290,1.0,25.01,2 
ENP,ioos.station.NOAA.NDBC:GBIF1:1,2015-01-07T07:00:00Z,25.3780,-81.0290,1.0,25.07,2 
ENP,ioos.station.NOAA.NDBC:GBIF1:1,2015-01-07T08:00:00Z,25.3780,-81.0290,1.0,25.12,2 
ENP,ioos.station.NOAA.NDBC:GBIF1:1,2015-01-07T09:00:00Z,25.3780,-81.0290,1.0,25.17,2 
ENP,ioos.station.NOAA.NDBC:GBIF1:1,2015-01-07T10:00:00Z,25.3780,-81.0290,1.0,25.17,2 
ENP,ioos.station.NOAA.NDBC:GBIF1:1,2015-01-07T11:00:00Z,25.3780,-81.0290,1.0,24.95,2 
ENP,ioos.station.NOAA.NDBC:GBIF1:1,2015-01-07T12:00:00Z,25.3780,-81.0290,1.0,24.73,2 
ENP,ioos.station.NOAA.NDBC:GBIF1:1,2015-01-07T13:00:00Z,25.3780,-81.0290,1.0,24.51,2 
ENP,ioos.station.NOAA.NDBC:GBIF1:1,2015-01-07T14:00:00Z,25.3780,-81.0290,1.0,24.26,2 
ENP,ioos.station.NOAA.NDBC:GBIF1:1,2015-01-07T15:00:00Z,25.3780,-81.0290,1.0,23.98,2 
ENP,ioos.station.NOAA.NDBC:GBIF1:1,2015-01-07T16:00:00Z,25.3780,-81.0290,1.0,24.44,2 
ENP,ioos.station.NOAA.NDBC:GBIF1:1,2015-01-07T17:00:00Z,25.3780,-81.0290,1.0,24.66,2 
ENP,ioos.station.NOAA.NDBC:GBIF1:1,2015-01-07T18:00:00Z,25.3780,-81.0290,1.0,25.04,2 
ENP,ioos.station.NOAA.NDBC:GBIF1:1,2015-01-07T19:00:00Z,25.3780,-81.0290,1.0,24.99,2 
ENP,ioos.station.NOAA.NDBC:GBIF1:1,2015-01-07T20:00:00Z,25.3780,-81.0290,1.0,25.31,2 
ENP,ioos.station.NOAA.NDBC:GBIF1:1,2015-01-07T21:00:00Z,25.3780,-81.0290,1.0,25.43,2 
ENP,ioos.station.NOAA.NDBC:GBIF1:1,2015-01-07T22:00:00Z,25.3780,-81.0290,1.0,25.46,2 
ENP,ioos.station.NOAA.NDBC:GBIF1:1,2015-01-07T23:00:00Z,25.3780,-81.0290,1.0,25.47,2 
ENP,ioos.station.NOAA.NDBC:GBIF1:1,2015-01-08T00:00:00Z,25.3780,-81.0290,1.0,25.29,2 
ENP,ioos.station.NOAA.NDBC:GBIF1:1,2015-01-08T01:00:00Z,25.3780,-81.0290,1.0,25.16,2 
ENP,ioos.station.NOAA.NDBC:GBIF1:1,2015-01-08T02:00:00Z,25.3780,-81.0290,1.0,24.94,2 
ENP,ioos.station.NOAA.NDBC:GBIF1:1,2015-01-08T03:00:00Z,25.3780,-81.0290,1.0,24.59,2 
ENP,ioos.station.NOAA.NDBC:GBIF1:1,2015-01-08T05:00:00Z,25.3780,-81.0290,1.0,24.62,2 
ENP,ioos.station.NOAA.NDBC:GBIF1:1,2015-01-08T06:00:00Z,25.3780,-81.0290,1.0,24.7,2 
ENP,ioos.station.NOAA.NDBC:GBIF1:1,2015-01-08T07:00:00Z,25.3780,-81.0290,1.0,24.58,2 
ENP,ioos.station.NOAA.NDBC:GBIF1:1,2015-01-08T08:00:00Z,25.3780,-81.0290,1.0,24.53,2 
ENP,ioos.station.NOAA.NDBC:GBIF1:1,2015-01-08T09:00:00Z,25.3780,-81.0290,1.0,24.44,2 
ENP,ioos.station.NOAA.NDBC:GBIF1:1,2015-01-08T10:00:00Z,25.3780,-81.0290,1.0,24.4,2 
ENP,ioos.station.NOAA.NDBC:GBIF1:1,2015-01-08T11:00:00Z,25.3780,-81.0290,1.0,23.97,2 
ENP,ioos.station.NOAA.NDBC:GBIF1:1,2015-01-08T12:00:00Z,25.3780,-81.0290,1.0,23.77,2 
ENP,ioos.station.NOAA.NDBC:GBIF1:1,2015-01-08T13:00:00Z,25.3780,-81.0290,1.0,23.36,2 
ENP,ioos.station.NOAA.NDBC:GBIF1:1,2015-01-08T14:00:00Z,25.3780,-81.0290,1.0,22.81,2 
ENP,ioos.station.NOAA.NDBC:GBIF1:1,2015-01-08T15:00:00Z,25.3780,-81.0290,1.0,22.71,2 
ENP,ioos.station.NOAA.NDBC:GBIF1:1,2015-01-08T16:00:00Z,25.3780,-81.0290,1.0,22.6,2 
ENP,ioos.station.NOAA.NDBC:GBIF1:1,2015-01-08T17:00:00Z,25.3780,-81.0290,1.0,22.52,2 
ENP,ioos.station.NOAA.NDBC:GBIF1:1,2015-01-08T18:00:00Z,25.3780,-81.0290,1.0,22.48,2 
ENP,ioos.station.NOAA.NDBC:GBIF1:1,2015-01-08T19:00:00Z,25.3780,-81.0290,1.0,22.51,2 
ENP,ioos.station.NOAA.NDBC:GBIF1:1,2015-01-08T20:00:00Z,25.3780,-81.0290,1.0,22.76,2 
ENP,ioos.station.NOAA.NDBC:GBIF1:1,2015-01-08T21:00:00Z,25.3780,-81.0290,1.0,22.79,2 
ENP,ioos.station.NOAA.NDBC:GBIF1:1,2015-01-08T22:00:00Z,25.3780,-81.0290,1.0,23.15,2 
ENP,ioos.station.NOAA.NDBC:GBIF1:1,2015-01-08T23:00:00Z,25.3780,-81.0290,1.0,23.26,2 
ENP,ioos.station.NOAA.NDBC:GBIF1:1,2015-01-09T00:00:00Z,25.3780,-81.0290,1.0,23.24,2 
ENP,ioos.station.NOAA.NDBC:GBIF1:1,2015-01-09T01:00:00Z,25.3780,-81.0290,1.0,22.85,2 
ENP,ioos.station.NOAA.NDBC:GBIF1:1,2015-01-09T02:00:00Z,25.3780,-81.0290,1.0,22.52,2 
ENP,ioos.station.NOAA.NDBC:GBIF1:1,2015-01-09T04:00:00Z,25.3780,-81.0290,1.0,21.94,2 
ENP,ioos.station.NOAA.NDBC:GBIF1:1,2015-01-09T05:00:00Z,25.3780,-81.0290,1.0,22.31,2 
ENP,ioos.station.NOAA.NDBC:GBIF1:1,2015-01-09T06:00:00Z,25.3780,-81.0290,1.0,22.41,2 
ENP,ioos.station.NOAA.NDBC:GBIF1:1,2015-01-09T07:00:00Z,25.3780,-81.0290,1.0,22.48,2 
ENP,ioos.station.NOAA.NDBC:GBIF1:1,2015-01-09T08:00:00Z,25.3780,-81.0290,1.0,22.62,2 
ENP,ioos.station.NOAA.NDBC:GBIF1:1,2015-01-09T09:00:00Z,25.3780,-81.0290,1.0,22.64,2 
ENP,ioos.station.NOAA.NDBC:GBIF1:1,2015-01-09T10:00:00Z,25.3780,-81.0290,1.0,22.58,2 
ENP,ioos.station.NOAA.NDBC:GBIF1:1,2015-01-09T11:00:00Z,25.3780,-81.0290,1.0,22.56,2 
ENP,ioos.station.NOAA.NDBC:GBIF1:1,2015-01-09T12:00:00Z,25.3780,-81.0290,1.0,22.29,2 
ENP,ioos.station.NOAA.NDBC:GBIF1:1,2015-01-09T13:00:00Z,25.3780,-81.0290,1.0,22.28,2 
ENP,ioos.station.NOAA.NDBC:GBIF1:1,2015-01-09T14:00:00Z,25.3780,-81.0290,1.0,22.1,2 
ENP,ioos.station.NOAA.NDBC:GBIF1:1,2015-01-10T12:00:00Z,25.3780,-81.0290,1.0,21.94,2 
ENP,ioos.station.NOAA.NDBC:GBIF1:1,2015-01-10T13:00:00Z,25.3780,-81.0290,1.0,21.98,2 
ENP,ioos.station.NOAA.NDBC:GBIF1:1,2015-01-10T14:00:00Z,25.3780,-81.0290,1.0,21.88,2 
ENP,ioos.station.NOAA.NDBC:GBIF1:1,2015-01-10T15:00:00Z,25.3780,-81.0290,1.0,21.42,2 
ENP,ioos.station.NOAA.NDBC:GBIF1:1,2015-01-10T16:00:00Z,25.3780,-81.0290,1.0,21.59,2 
ENP,ioos.station.NOAA.NDBC:GBIF1:1,2015-01-10T17:00:00Z,25.3780,-81.0290,1.0,21.52,2 
ENP,ioos.station.NOAA.NDBC:GBIF1:1,2015-01-10T18:00:00Z,25.3780,-81.0290,1.0,21.59,2 
ENP,ioos.station.NOAA.NDBC:GBIF1:1,2015-01-10T19:00:00Z,25.3780,-81.0290,1.0,21.73,2 
ENP,ioos.station.NOAA.NDBC:GBIF1:1,2015-01-10T20:00:00Z,25.3780,-81.0290,1.0,21.9,2 
ENP,ioos.station.NOAA.NDBC:GBIF1:1,2015-01-10T21:00:00Z,25.3780,-81.0290,1.0,22.0,2 
ENP,ioos.station.NOAA.NDBC:GBIF1:1,2015-01-10T22:00:00Z,25.3780,-81.0290,1.0,22.43,2 
ENP,ioos.station.NOAA.NDBC:GBIF1:1,2015-01-10T23:00:00Z,25.3780,-81.0290,1.0,22.46,2 
ENP,ioos.station.NOAA.NDBC:GBIF1:1,2015-01-11T00:00:00Z,25.3780,-81.0290,1.0,22.42,2 
ENP,ioos.station.NOAA.NDBC:GBIF1:1,2015-01-11T01:00:00Z,25.3780,-81.0290,1.0,22.36,2 
ENP,ioos.station.NOAA.NDBC:GBIF1:1,2015-01-11T02:00:00Z,25.3780,-81.0290,1.0,22.32,2 
ENP,ioos.station.NOAA.NDBC:GBIF1:1,2015-01-11T03:00:00Z,25.3780,-81.0290,1.0,22.16,2 
ENP,ioos.station.NOAA.NDBC:GBIF1:1,2015-01-11T04:00:00Z,25.3780,-81.0290,1.0,21.92,2 
ENP,ioos.station.NOAA.NDBC:GBIF1:1,2015-01-11T05:00:00Z,25.3780,-81.0290,1.0,21.64,2 
ENP,ioos.station.NOAA.NDBC:GBIF1:1,2015-01-11T06:00:00Z,25.3780,-81.0290,1.0,21.66,2 
ENP,ioos.station.NOAA.NDBC:GBIF1:1,2015-01-11T07:00:00Z,25.3780,-81.0290,1.0,21.7,2 
ENP,ioos.station.NOAA.NDBC:GBIF1:1,2015-01-11T08:00:00Z,25.3780,-81.0290,1.0,21.77,2 
ENP,ioos.station.NOAA.NDBC:GBIF1:1,2015-01-11T09:00:00Z,25.3780,-81.0290,1.0,21.88,2 
ENP,ioos.station.NOAA.NDBC:GBIF1:1,2015-01-11T10:00:00Z,25.3780,-81.0290,1.0,21.94,2 
ENP,ioos.station.NOAA.NDBC:GBIF1:1,2015-01-11T11:00:00Z,25.3780,-81.0290,1.0,21.91,2 
ENP,ioos.station.NOAA.NDBC:GBIF1:1,2015-01-11T12:00:00Z,25.3780,-81.0290,1.0,21.9,2 
ENP,ioos.station.NOAA.NDBC:GBIF1:1,2015-01-11T13:00:00Z,25.3780,-81.0290,1.0,21.79,2 
ENP,ioos.station.NOAA.NDBC:GBIF1:1,2015-01-11T14:00:00Z,25.3780,-81.0290,1.0,21.79,2 
ENP,ioos.station.NOAA.NDBC:GBIF1:1,2015-01-11T15:00:00Z,25.3780,-81.0290,1.0,21.61,2 
ENP,ioos.station.NOAA.NDBC:GBIF1:1,2015-01-11T16:00:00Z,25.3780,-81.0290,1.0,21.49,2 
ENP,ioos.station.NOAA.NDBC:GBIF1:1,2015-01-11T17:00:00Z,25.3780,-81.0290,1.0,21.83,2 
ENP,ioos.station.NOAA.NDBC:GBIF1:1,2015-01-11T18:00:00Z,25.3780,-81.0290,1.0,21.84,2 
ENP,ioos.station.NOAA.NDBC:GBIF1:1,2015-01-11T19:00:00Z,25.3780,-81.0290,1.0,21.99,2 
ENP,ioos.station.NOAA.NDBC:GBIF1:1,2015-01-11T20:00:00Z,25.3780,-81.0290,1.0,22.1,2 
ENP,ioos.station.NOAA.NDBC:GBIF1:1,2015-01-11T21:00:00Z,25.3780,-81.0290,1.0,22.2,2 
ENP,ioos.station.NOAA.NDBC:GBIF1:1,2015-01-11T22:00:00Z,25.3780,-81.0290,1.0,22.55,2 
ENP,ioos.station.NOAA.NDBC:GBIF1:1,2015-01-11T23:00:00Z,25.3780,-81.0290,1.0,22.64,2 
ENP,ioos.station.NOAA.NDBC:GBIF1:1,2015-01-12T00:00:00Z,25.3780,-81.0290,1.0,22.61,2 
ENP,ioos.station.NOAA.NDBC:GBIF1:1,2015-01-12T01:00:00Z,25.3780,-81.0290,1.0,22.6,2 
ENP,ioos.station.NOAA.NDBC:GBIF1:1,2015-01-12T02:00:00Z,25.3780,-81.0290,1.0,22.59,2 
ENP,ioos.station.NOAA.NDBC:GBIF1:1,2015-01-12T03:00:00Z,25.3780,-81.0290,1.0,22.54,2 
ENP,ioos.station.NOAA.NDBC:GBIF1:1,2015-01-12T04:00:00Z,25.3780,-81.0290,1.0,22.5,2 
ENP,ioos.station.NOAA.NDBC:GBIF1:1,2015-01-12T05:00:00Z,25.3780,-81.0290,1.0,22.37,2 
ENP,ioos.station.NOAA.NDBC:GBIF1:1,2015-01-12T06:00:00Z,25.3780,-81.0290,1.0,22.2,2 
ENP,ioos.station.NOAA.NDBC:GBIF1:1,2015-01-12T07:00:00Z,25.3780,-81.0290,1.0,22.17,2 
ENP,ioos.station.NOAA.NDBC:GBIF1:1,2015-01-12T08:00:00Z,25.3780,-81.0290,1.0,22.18,2 
ENP,ioos.station.NOAA.NDBC:GBIF1:1,2015-01-12T09:00:00Z,25.3780,-81.0290,1.0,22.24,2 
ENP,ioos.station.NOAA.NDBC:GBIF1:1,2015-01-12T10:00:00Z,25.3780,-81.0290,1.0,22.35,2 
ENP,ioos.station.NOAA.NDBC:GBIF1:1,2015-01-12T11:00:00Z,25.3780,-81.0290,1.0,22.38,2 
ENP,ioos.station.NOAA.NDBC:GBIF1:1,2015-01-12T12:00:00Z,25.3780,-81.0290,1.0,22.35,2 
ENP,ioos.station.NOAA.NDBC:GBIF1:1,2015-01-12T13:00:00Z,25.3780,-81.0290,1.0,22.36,2 
ENP,ioos.station.NOAA.NDBC:GBIF1:1,2015-01-12T14:00:00Z,25.3780,-81.0290,1.0,22.35,2 
ENP,ioos.station.NOAA.NDBC:GBIF1:1,2015-01-12T15:00:00Z,25.3780,-81.0290,1.0,22.36,2 
ENP,ioos.station.NOAA.NDBC:GBIF1:1,2015-01-12T16:00:00Z,25.3780,-81.0290,1.0,22.23,2 
ENP,ioos.station.NOAA.NDBC:GBIF1:1,2015-01-12T17:00:00Z,25.3780,-81.0290,1.0,22.19,2 
ENP,ioos.station.NOAA.NDBC:GBIF1:1,2015-01-12T18:00:00Z,25.3780,-81.0290,1.0,22.42,2 
ENP,ioos.station.NOAA.NDBC:GBIF1:1,2015-01-12T19:00:00Z,25.3780,-81.0290,1.0,22.5,2 
ENP,ioos.station.NOAA.NDBC:GBIF1:1,2015-01-12T20:00:00Z,25.3780,-81.0290,1.0,22.55,2 
ENP,ioos.station.NOAA.NDBC:GBIF1:1,2015-01-12T21:00:00Z,25.3780,-81.0290,1.0,22.54,2 
ENP,ioos.station.NOAA.NDBC:GBIF1:1,2015-01-12T22:00:00Z,25.3780,-81.0290,1.0,22.72,2 
ENP,ioos.station.NOAA.NDBC:GBIF1:1,2015-01-12T23:00:00Z,25.3780,-81.0290,1.0,22.98,2 
ENP,ioos.station.NOAA.NDBC:GBIF1:1,2015-01-13T00:00:00Z,25.3780,-81.0290,1.0,23.01,2 
ENP,ioos.station.NOAA.NDBC:GBIF1:1,2015-01-13T01:00:00Z,25.3780,-81.0290,1.0,22.99,2 
ENP,ioos.station.NOAA.NDBC:GBIF1:1,2015-01-13T02:00:00Z,25.3780,-81.0290,1.0,23.01,2 
ENP,ioos.station.NOAA.NDBC:GBIF1:1,2015-01-13T03:00:00Z,25.3780,-81.0290,1.0,22.99,2 
ENP,ioos.station.NOAA.NDBC:GBIF1:1,2015-01-13T04:00:00Z,25.3780,-81.0290,1.0,22.94,2 
ENP,ioos.station.NOAA.NDBC:GBIF1:1,2015-01-13T05:00:00Z,25.3780,-81.0290,1.0,22.86,2 
ENP,ioos.station.NOAA.NDBC:GBIF1:1,2015-01-13T06:00:00Z,25.3780,-81.0290,1.0,22.75,2 
ENP,ioos.station.NOAA.NDBC:GBIF1:1,2015-01-13T07:00:00Z,25.3780,-81.0290,1.0,22.62,2 
ENP,ioos.station.NOAA.NDBC:GBIF1:1,2015-01-13T08:00:00Z,25.3780,-81.0290,1.0,22.64,2 
ENP,ioos.station.NOAA.NDBC:GBIF1:1,2015-01-13T09:00:00Z,25.3780,-81.0290,1.0,22.63,2 
ENP,ioos.station.NOAA.NDBC:GBIF1:1,2015-01-13T10:00:00Z,25.3780,-81.0290,1.0,22.66,2 
ENP,ioos.station.NOAA.NDBC:GBIF1:1,2015-01-13T11:00:00Z,25.3780,-81.0290,1.0,22.74,2 
ENP,ioos.station.NOAA.NDBC:GBIF1:1,2015-01-13T12:00:00Z,25.3780,-81.0290,1.0,22.78,2 
ENP,ioos.station.NOAA.NDBC:GBIF1:1,2015-01-13T13:00:00Z,25.3780,-81.0290,1.0,22.78,2 
ENP,ioos.station.NOAA.NDBC:GBIF1:1,2015-01-13T14:00:00Z,25.3780,-81.0290,1.0,22.76,2 
ENP,ioos.station.NOAA.NDBC:GBIF1:1,2015-01-13T15:00:00Z,25.3780,-81.0290,1.0,22.73,2 
ENP,ioos.station.NOAA.NDBC:GBIF1:1,2015-01-13T16:00:00Z,25.3780,-81.0290,1.0,22.74,2 
ENP,ioos.station.NOAA.NDBC:GBIF1:1,2015-01-13T17:00:00Z,25.3780,-81.0290,1.0,22.76,2 
ENP,ioos.station.NOAA.NDBC:GBIF1:1,2015-01-13T18:00:00Z,25.3780,-81.0290,1.0,22.86,2 
ENP,ioos.station.NOAA.NDBC:GBIF1:1,2015-01-13T19:00:00Z,25.3780,-81.0290,1.0,23.12,2 
ENP,ioos.station.NOAA.NDBC:GBIF1:1,2015-01-13T20:00:00Z,25.3780,-81.0290,1.0,23.18,2 
ENP,ioos.station.NOAA.NDBC:GBIF1:1,2015-01-13T22:00:00Z,25.3780,-81.0290,1.0,23.27,2 
ENP,ioos.station.NOAA.NDBC:GBIF1:1,2015-01-13T23:00:00Z,25.3780,-81.0290,1.0,23.36,2 
ENP,ioos.station.NOAA.NDBC:GBIF1:1,2015-01-14T00:00:00Z,25.3780,-81.0290,1.0,23.49,2 
ENP,ioos.station.NOAA.NDBC:GBIF1:1,2015-01-14T01:00:00Z,25.3780,-81.0290,1.0,23.53,2 
ENP,ioos.station.NOAA.NDBC:GBIF1:1,2015-01-14T02:00:00Z,25.3780,-81.0290,1.0,23.57,2 
ENP,ioos.station.NOAA.NDBC:GBIF1:1,2015-01-14T03:00:00Z,25.3780,-81.0290,1.0,23.57,2 
ENP,ioos.station.NOAA.NDBC:GBIF1:1,2015-01-14T04:00:00Z,25.3780,-81.0290,1.0,23.51,2 
ENP,ioos.station.NOAA.NDBC:GBIF1:1,2015-01-14T05:00:00Z,25.3780,-81.0290,1.0,23.36,2 
ENP,ioos.station.NOAA.NDBC:GBIF1:1,2015-01-14T06:00:00Z,25.3780,-81.0290,1.0,23.27,2 
ENP,ioos.station.NOAA.NDBC:GBIF1:1,2015-01-14T07:00:00Z,25.3780,-81.0290,1.0,23.13,2 
ENP,ioos.station.NOAA.NDBC:GBIF1:1,2015-01-14T08:00:00Z,25.3780,-81.0290,1.0,22.96,2 
ENP,ioos.station.NOAA.NDBC:GBIF1:1,2015-01-14T09:00:00Z,25.3780,-81.0290,1.0,22.99,2 
ENP,ioos.station.NOAA.NDBC:GBIF1:1,2015-01-14T10:00:00Z,25.3780,-81.0290,1.0,23.08,2 
ENP,ioos.station.NOAA.NDBC:GBIF1:1,2015-01-14T11:00:00Z,25.3780,-81.0290,1.0,23.07,2 
ENP,ioos.station.NOAA.NDBC:GBIF1:1,2015-01-14T12:00:00Z,25.3780,-81.0290,1.0,23.06,2 
ENP,ioos.station.NOAA.NDBC:GBIF1:1,2015-01-14T13:00:00Z,25.3780,-81.0290,1.0,23.14,2 
ENP,ioos.station.NOAA.NDBC:GBIF1:1,2015-01-14T14:00:00Z,25.3780,-81.0290,1.0,23.14,2 
ENP,ioos.station.NOAA.NDBC:GBIF1:1,2015-01-14T15:00:00Z,25.3780,-81.0290,1.0,23.15,2 
ENP,ioos.station.NOAA.NDBC:GBIF1:1,2015-01-14T17:00:00Z,25.3780,-81.0290,1.0,23.11,2 
ENP,ioos.station.NOAA.NDBC:GBIF1:1,2015-01-14T18:00:00Z,25.3780,-81.0290,1.0,23.11,2 
ENP,ioos.station.NOAA.NDBC:GBIF1:1,2015-01-14T19:00:00Z,25.3780,-81.0290,1.0,23.44,2 
ENP,ioos.station.NOAA.NDBC:GBIF1:1,2015-01-14T20:00:00Z,25.3780,-81.0290,1.0,23.59,2 
ENP,ioos.station.NOAA.NDBC:GBIF1:1,2015-01-14T21:00:00Z,25.3780,-81.0290,1.0,23.68,2 
ENP,ioos.station.NOAA.NDBC:GBIF1:1,2015-01-14T22:00:00Z,25.3780,-81.0290,1.0,23.76,2 
ENP,ioos.station.NOAA.NDBC:GBIF1:1,2015-01-14T23:00:00Z,25.3780,-81.0290,1.0,23.5,2 
ENP,ioos.station.NOAA.NDBC:GBIF1:1,2015-01-15T00:00:00Z,25.3780,-81.0290,1.0,23.62,2 
ENP,ioos.station.NOAA.NDBC:GBIF1:1,2015-01-15T01:00:00Z,25.3780,-81.0290,1.0,23.6,2 
ENP,ioos.station.NOAA.NDBC:GBIF1:1,2015-01-15T02:00:00Z,25.3780,-81.0290,1.0,23.62,2 
ENP,ioos.station.NOAA.NDBC:GBIF1:1,2015-01-15T03:00:00Z,25.3780,-81.0290,1.0,23.62,2 
ENP,ioos.station.NOAA.NDBC:GBIF1:1,2015-01-15T04:00:00Z,25.3780,-81.0290,1.0,23.61,2 
ENP,ioos.station.NOAA.NDBC:GBIF1:1,2015-01-15T05:00:00Z,25.3780,-81.0290,1.0,23.44,2 
ENP,ioos.station.NOAA.NDBC:GBIF1:1,2015-01-15T06:00:00Z,25.3780,-81.0290,1.0,23.37,2 
ENP,ioos.station.NOAA.NDBC:GBIF1:1,2015-01-15T10:00:00Z,25.3780,-81.0290,1.0,23.08,2 
ENP,ioos.station.NOAA.NDBC:GBIF1:1,2015-01-22T10:00:00Z,25.3780,-81.0290,1.0,21.47,2 
ENP,ioos.station.NOAA.NDBC:GBIF1:1,2015-01-22T11:00:00Z,25.3780,-81.0290,1.0,21.37,2 
ENP,ioos.station.NOAA.NDBC:GBIF1:1,2015-01-23T17:00:00Z,25.3780,-81.0290,1.0,20.85,2 
ENP,ioos.station.NOAA.NDBC:GBIF1:1,2015-01-23T18:00:00Z,25.3780,-81.0290,1.0,22.11,2 
ENP,ioos.station.NOAA.NDBC:GBIF1:1,2015-01-23T19:00:00Z,25.3780,-81.0290,1.0,22.16,2 
ENP,ioos.station.NOAA.NDBC:GBIF1:1,2015-01-23T20:00:00Z,25.3780,-81.0290,1.0,22.33,2 
ENP,ioos.station.NOAA.NDBC:GBIF1:1,2015-01-23T21:00:00Z,25.3780,-81.0290,1.0,22.38,2 
ENP,ioos.station.NOAA.NDBC:GBIF1:1,2015-01-23T22:00:00Z,25.3780,-81.0290,1.0,22.63,2 
ENP,ioos.station.NOAA.NDBC:GBIF1:1,2015-01-23T23:00:00Z,25.3780,-81.0290,1.0,22.7,2 
ENP,ioos.station.NOAA.NDBC:GBIF1:1,2015-01-24T00:00:00Z,25.3780,-81.0290,1.0,22.69,2 
ENP,ioos.station.NOAA.NDBC:GBIF1:1,2015-01-24T02:00:00Z,25.3780,-81.0290,1.0,22.43,2 
ENP,ioos.station.NOAA.NDBC:GBIF1:1,2015-01-24T03:00:00Z,25.3780,-81.0290,1.0,22.29,2 
ENP,ioos.station.NOAA.NDBC:GBIF1:1,2015-01-24T04:00:00Z,25.3780,-81.0290,1.0,22.1,2 
ENP,ioos.station.NOAA.NDBC:GBIF1:1,2015-01-24T05:00:00Z,25.3780,-81.0290,1.0,21.94,2 
ENP,ioos.station.NOAA.NDBC:GBIF1:1,2015-01-24T06:00:00Z,25.3780,-81.0290,1.0,21.91,2 
ENP,ioos.station.NOAA.NDBC:GBIF1:1,2015-01-24T07:00:00Z,25.3780,-81.0290,1.0,22.22,2 
ENP,ioos.station.NOAA.NDBC:GBIF1:1,2015-01-24T08:00:00Z,25.3780,-81.0290,1.0,22.24,2 
ENP,ioos.station.NOAA.NDBC:GBIF1:1,2015-01-24T09:00:00Z,25.3780,-81.0290,1.0,22.32,2 
ENP,ioos.station.NOAA.NDBC:GBIF1:1,2015-01-24T10:00:00Z,25.3780,-81.0290,1.0,22.45,2 
ENP,ioos.station.NOAA.NDBC:GBIF1:1,2015-01-24T11:00:00Z,25.3780,-81.0290,1.0,22.53,2 
ENP,ioos.station.NOAA.NDBC:GBIF1:1,2015-01-24T12:00:00Z,25.3780,-81.0290,1.0,22.54,2 
ENP,ioos.station.NOAA.NDBC:GBIF1:1,2015-01-24T13:00:00Z,25.3780,-81.0290,1.0,22.41,2 
ENP,ioos.station.NOAA.NDBC:GBIF1:1,2015-01-24T14:00:00Z,25.3780,-81.0290,1.0,22.3,2 
ENP,ioos.station.NOAA.NDBC:GBIF1:1,2015-01-24T15:00:00Z,25.3780,-81.0290,1.0,22.17,2 
ENP,ioos.station.NOAA.NDBC:GBIF1:1,2015-01-24T16:00:00Z,25.3780,-81.0290,1.0,22.13,2 
ENP,ioos.station.NOAA.NDBC:GBIF1:1,2015-01-24T17:00:00Z,25.3780,-81.0290,1.0,22.02,2 
ENP,ioos.station.NOAA.NDBC:GBIF1:1,2015-01-24T18:00:00Z,25.3780,-81.0290,1.0,22.18,2 
ENP,ioos.station.NOAA.NDBC:GBIF1:1,2015-01-24T19:00:00Z,25.3780,-81.0290,1.0,22.21,2 
ENP,ioos.station.NOAA.NDBC:GBIF1:1,2015-01-24T20:00:00Z,25.3780,-81.0290,1.0,22.31,2 
ENP,ioos.station.NOAA.NDBC:GBIF1:1,2015-01-24T21:00:00Z,25.3780,-81.0290,1.0,22.39,2 
ENP,ioos.station.NOAA.NDBC:GBIF1:1,2015-01-24T22:00:00Z,25.3780,-81.0290,1.0,22.42,2 
ENP,ioos.station.NOAA.NDBC:GBIF1:1,2015-01-24T23:00:00Z,25.3780,-81.0290,1.0,22.41,2 
ENP,ioos.station.NOAA.NDBC:GBIF1:1,2015-01-25T00:00:00Z,25.3780,-81.0290,1.0,22.34,2 
ENP,ioos.station.NOAA.NDBC:GBIF1:1,2015-01-25T01:00:00Z,25.3780,-81.0290,1.0,22.24,2 
ENP,ioos.station.NOAA.NDBC:GBIF1:1,2015-01-25T02:00:00Z,25.3780,-81.0290,1.0,21.56,2 
ENP,ioos.station.NOAA.NDBC:GBIF1:1,2015-01-25T04:00:00Z,25.3780,-81.0290,1.0,21.21,2 
ENP,ioos.station.NOAA.NDBC:GBIF1:1,2015-01-25T05:00:00Z,25.3780,-81.0290,1.0,20.75,2 
ENP,ioos.station.NOAA.NDBC:GBIF1:1,2015-01-25T06:00:00Z,25.3780,-81.0290,1.0,20.12,2 
ENP,ioos.station.NOAA.NDBC:GBIF1:1,2015-01-25T07:00:00Z,25.3780,-81.0290,1.0,19.75,2 
ENP,ioos.station.NOAA.NDBC:GBIF1:1,2015-01-25T08:00:00Z,25.3780,-81.0290,1.0,20.82,2 
ENP,ioos.station.NOAA.NDBC:GBIF1:1,2015-01-25T09:00:00Z,25.3780,-81.0290,1.0,21.16,2 
ENP,ioos.station.NOAA.NDBC:GBIF1:1,2015-01-25T10:00:00Z,25.3780,-81.0290,1.0,21.18,2 
ENP,ioos.station.NOAA.NDBC:GBIF1:1,2015-01-25T11:00:00Z,25.3780,-81.0290,1.0,21.14,2 
ENP,ioos.station.NOAA.NDBC:GBIF1:1,2015-01-25T12:00:00Z,25.3780,-81.0290,1.0,21.13,2 
ENP,ioos.station.NOAA.NDBC:GBIF1:1,2015-01-25T13:00:00Z,25.3780,-81.0290,1.0,20.96,2 
ENP,ioos.station.NOAA.NDBC:GBIF1:1,2015-01-25T14:00:00Z,25.3780,-81.0290,1.0,20.49,2 
ENP,ioos.station.NOAA.NDBC:GBIF1:1,2015-01-25T15:00:00Z,25.3780,-81.0290,1.0,20.12,2 
ENP,ioos.station.NOAA.NDBC:GBIF1:1,2015-01-25T16:00:00Z,25.3780,-81.0290,1.0,19.73,2 
ENP,ioos.station.NOAA.NDBC:GBIF1:1,2015-01-25T17:00:00Z,25.3780,-81.0290,1.0,19.02,2 
ENP,ioos.station.NOAA.NDBC:GBIF1:1,2015-01-25T18:00:00Z,25.3780,-81.0290,1.0,19.62,2 
ENP,ioos.station.NOAA.NDBC:GBIF1:1,2015-01-25T19:00:00Z,25.3780,-81.0290,1.0,20.73,2 
ENP,ioos.station.NOAA.NDBC:GBIF1:1,2015-01-25T20:00:00Z,25.3780,-81.0290,1.0,20.79,2 
ENP,ioos.station.NOAA.NDBC:GBIF1:1,2015-01-25T21:00:00Z,25.3780,-81.0290,1.0,20.97,2 
ENP,ioos.station.NOAA.NDBC:GBIF1:1,2015-01-25T22:00:00Z,25.3780,-81.0290,1.0,21.04,2 
ENP,ioos.station.NOAA.NDBC:GBIF1:1,2015-01-25T23:00:00Z,25.3780,-81.0290,1.0,21.11,2 
ENP,ioos.station.NOAA.NDBC:GBIF1:1,2015-01-26T00:00:00Z,25.3780,-81.0290,1.0,21.21,2 
ENP,ioos.station.NOAA.NDBC:GBIF1:1,2015-01-26T01:00:00Z,25.3780,-81.0290,1.0,21.22,2 
ENP,ioos.station.NOAA.NDBC:GBIF1:1,2015-01-26T02:00:00Z,25.3780,-81.0290,1.0,21.11,2 
ENP,ioos.station.NOAA.NDBC:GBIF1:1,2015-01-26T03:00:00Z,25.3780,-81.0290,1.0,20.68,2 
ENP,ioos.station.NOAA.NDBC:GBIF1:1,2015-01-26T04:00:00Z,25.3780,-81.0290,1.0,20.25,2 
ENP,ioos.station.NOAA.NDBC:GBIF1:1,2015-01-26T05:00:00Z,25.3780,-81.0290,1.0,19.82,2 